Location: Unspecified
(49.2170°N, 0.0000°E)
Time: 11:36:24
(UTC+00:00)

Transit 4A - Pass Details

Date: 18 June 2019
Orbit: 862 x 982 km, 66.8° (Epoch: 22 July)

Event Time Altitude Azimuth Distance (km) Brightness Sun altitude
Rises 10:08:57 0° 231° (SW) 3,622 10.9 56.1°
Reaches altitude 10° 10:11:33 10° 236° (SW) 2,694 10.4 56.4°
Maximum altitude 10:17:44 55° 313° (NW) 1,168 8.8 57.2°
Drops below altitude 10° 10:24:03 10° 31° (NNE) 2,746 10.4 57.9°
Sets 10:26:43 0° 36° (NE) 3,697 11.0 58.2°
